Weather History for Detroit Metro, MI

Change the Weather History Date:

Thursday, January 1, 1998

  Actual Average Record
Temperature  
Mean Temperature 42 °F 26 °F  
Max Temperature 68 °F 33 °F 65 °F (1876)
Min Temperature 16 °F 20 °F -7 °F (1968)
Degree Days  
Heating Degree Days 23 39  
Month to date heating degree days 39  
Since 1 July heating degree days 2336  
Cooling Degree Days 0 0  
Month to date cooling degree days 0  
Year to date cooling degree days 0  
Moisture  
Dew Point 18 °F    
Average Humidity 62    
Maximum Humidity 81    
Minimum Humidity 15    
Precipitation  
Precipitation 0.00 in 0.07 in 1.41 in (1932)
Month to date precipitation 0.07  
Year to date precipitation 0.07  
Snow  
Snow 0.00 in 0.40 in 7.00 in (1978)
Month to date snowfall 0.4  
Since 1 July snowfall 11.6  
Snow Depth -    
Sea Level Pressure  
Sea Level Pressure 30.13 in    
Wind  
Wind Speed 17 mph (South)    
Max Wind Speed 30 mph    
Max Gust Speed 39 mph    
Visibility 10 miles    
Events      
T = Trace of Precipitation, MM = Missing Value Source: NWS Daily Summary

Daily Weather History Graph

Daily Weather History Graph

Search for Another Location

Airport:

Trip Planner

Search our weather history database for the weather conditions in past years. The results will help you decide how hot, cold, wet, or windy it might be!

Date:

Astronomy

Jan. 01, 1998 Rise Set
Actual Time 8:02 AM EST 5:11 PM EST
Civil Twilight 7:30 AM EST 5:43 PM EST
Nautical Twilight 6:55 AM EST 6:18 PM EST
Astronomical Twilight 6:21 AM EST 6:52 PM EST
Moon 10:01 AM EST (1/1) 8:51 PM EST (1/1)
Length of Visible Light 10h 13m
Length of Day
9h 09m
Waxing Crescent, 11% of the Moon is Illuminated
Jan 1
Waxing Crescent
Jan 5
First Quarter
Jan 12
Full
Jan 20
Last Quarter
Jan 28
New

Hourly Weather History & Observations

Time (EST) Temp. Windchill Dew Point Humidity Pressure Visibility Wind Dir Wind Speed Gust Speed Precip Events Conditions
12:54 AM 16.0 °F 4.4 °F 10.9 °F 81% 30.36 in 10.0 mi South 9.2 mph - N/A   Partly Cloudy
1:54 AM 18.0 °F 6.9 °F 12.9 °F 81% 30.35 in 10.0 mi South 9.2 mph - N/A   Overcast
2:54 AM 19.0 °F 6.8 °F 14.0 °F 81% 30.35 in 10.0 mi South 11.5 mph - N/A   Overcast
3:54 AM 19.0 °F 6.8 °F 12.9 °F 77% 30.35 in 10.0 mi South 11.5 mph - N/A   Overcast
4:54 AM 19.9 °F 5.7 °F 12.0 °F 71% 30.32 in 10.0 mi South 16.1 mph - N/A   Overcast
5:54 AM 19.9 °F 5.2 °F 10.0 °F 65% 30.31 in 10.0 mi South 17.3 mph - N/A   Overcast
6:54 AM 19.9 °F 3.9 °F 9.0 °F 62% 30.28 in 10.0 mi South 20.7 mph - N/A   Overcast
7:54 AM 19.9 °F 5.2 °F 9.0 °F 62% 30.22 in 10.0 mi SSE 17.3 mph - N/A   Mostly Cloudy
8:54 AM 21.0 °F 7.1 °F 10.0 °F 63% 30.20 in 10.0 mi South 16.1 mph - N/A   Mostly Cloudy
9:54 AM 23.0 °F 7.2 °F 12.0 °F 63% 30.18 in 10.0 mi South 23.0 mph - N/A   Mostly Cloudy
10:54 AM 28.0 °F 13.9 °F 15.1 °F 58% 30.14 in 10.0 mi South 23.0 mph - N/A   Mostly Cloudy
11:54 AM 32.0 °F 17.6 °F 17.1 °F 54% 30.08 in 10.0 mi SSW 29.9 mph 39.1 mph N/A   Scattered Clouds
12:54 PM 68.0 °F - 19.0 °F 15% 30.03 in 10.0 mi South 27.6 mph 35.7 mph N/A   Scattered Clouds
1:54 PM 37.0 °F 25.9 °F 21.0 °F 52% 30.01 in 10.0 mi SSW 23.0 mph 31.1 mph N/A   Scattered Clouds
2:54 PM 39.9 °F 28.6 °F 21.9 °F 49% 29.97 in 10.0 mi SSW 28.8 mph 38.0 mph N/A   Scattered Clouds
3:54 PM 39.9 °F 29.0 °F 23.0 °F 51% 29.96 in 10.0 mi SSW 26.5 mph 32.2 mph N/A   Scattered Clouds
4:54 PM 39.0 °F 27.6 °F 23.0 °F 53% 29.97 in 10.0 mi SSW 27.6 mph 36.8 mph N/A   Scattered Clouds
5:54 PM 37.0 °F 25.9 °F 24.1 °F 59% 29.99 in 10.0 mi SSW 23.0 mph 29.9 mph N/A   Scattered Clouds
6:54 PM 37.0 °F 25.6 °F 25.0 °F 62% 30.00 in 10.0 mi SSW 24.2 mph - N/A   Clear
7:54 PM 36.0 °F 25.0 °F 25.0 °F 64% 29.99 in 10.0 mi SSW 20.7 mph - N/A   Partly Cloudy
8:54 PM 36.0 °F 25.3 °F 26.1 °F 67% 30.01 in 10.0 mi SSW 19.6 mph 26.5 mph N/A   Clear
9:54 PM 35.1 °F 23.8 °F 25.0 °F 67% 30.03 in 10.0 mi South 20.7 mph - N/A   Clear
10:54 PM 35.1 °F 24.8 °F 25.0 °F 67% 30.04 in 10.0 mi SSW 17.3 mph - N/A   Clear
11:54 PM 35.1 °F 25.2 °F 25.0 °F 67% 30.03 in 10.0 mi South 16.1 mph - N/A   Clear